DMSP 5D-2 F13 DEB

Satellite information

Favourite Embed

Satellite Type and Status

DEBRISIN ORBIT

Key statistics

Satellite DMSP 5D-2 F13 DEB at a glance.

Uptime

11003

Days in orbit

Revolutions

≈ 14.2

Per day

Orbit

SSO

Sun Synchronous Orbit

Inclination

98.9

Latest

Satellite identification and parameters

Extended collection of information and parameters for DMSP 5D-2 F13 DEB.

Object identification

Identified? True

Debris? True

Object name: DMSP 5D-2 F13 DEB

International designator: 1995-015HB

Object number (NORAD): 42285

Object ID (CCSDS): 42285

Country: UNITED STATES OF AMERICA (US)

Current information (Y/N): Y

RCS size: SMALL

Orbital parameters

Period: 101.139 minutes

Inclination: 98.9254 deg

SMA: 7190.717 km

Apoapsis: 837.748 km

Periapsis: 787.416 km

RAAN: 146.1955 deg

Eccentricy: 0.0034998

Argument of periapsis: 124.3432 deg

Mean anomaly: 236.1065 deg

Mean motion: 14.23785236 rev/day

Mean motion (dot): 0.00005316 rev/day2

B* drag term: 0.0023286 1/REarth

Two-line elements (TLE)

Creation date: May 6, 2025, 3:54 a.m.

Reference frame: TEME

Reference center: EARTH

Epoch: May 5, 2025, 8:10 p.m. UTC

TLE line 0: 0 DMSP 5D-2 F13 DEB

TLE line 1: 1 42285U 95015HB 25125.84073175 .00005316 00000-0 23286-2 0 9999

TLE line 2: 2 42285 98.9254 146.1955 0034998 124.3432 236.1065 14.23785236509821

Live tracking on map

Real-time ground track for satellite DMSP 5D-2 F13 DEB.

In-orbit conjunctions

A list of the most updated potential collisions computed for object DMSP 5D-2 F13 DEB.

Target Orbit TCA Probability of collision Miss distance Type
CZ-6A DEB LEO 2025-03-04 12:57:28 0.0001468224 104.0 (m) DEBRIS
THOR ABLESTAR DEB LEO 2025-01-03 18:08:31 0.0003491262 91.0 (m) DEBRIS
CZ-6A DEB LEO 2024-11-11 05:11:16 0.0002517179 806.0 (m) DEBRIS
THOR BURNER 2A R/B SSO 2024-10-23 20:55:54 0.0001174743 290.0 (m) ROCKET BODY
THOR BURNER 2 R/B SSO 2024-07-01 20:27:53 0.0001890651 937.0 (m) ROCKET BODY

Associated space launch

Military meteorological satellite

DMSP 5D-2 F13 DEB was lifted into orbit during the mission ‘Atlas E | DMSP-5D2 F13’, on board a Atlas E space rocket.

The launch took place on March 24, 1995, 2:05 p.m. from Space Launch Complex 3W.

For more information about the launch, click the button.

Launch to space Atlas E | DMSP-5D2 F13
Atlas E | DMSP-5D2 F13

Agency: N/A

Status: Launch Successful

Launch date: March 24, 1995, 2:05 p.m. UTC

Rocket: Atlas E

Launch pad: Space Launch Complex 3W

Location: Vandenberg SFB, CA, USA

...

Latest news about this satellite

There are no fresh news available about this satellite. Check back as we update our databases every day.


Newsletter sign-up

Weekly statistics, charts and insights to help you stay on top of the space industry.